Sisseton, SD

11:13 PM CDT on September 30, 2016 (GMT -0500)
Sisseton

Weather History for K8D3 - June, 2013

Change the Weather History Date:

Thursday, June 20, 2013

  Actual Average Record
Temperature  
Mean Temperature 73 °F 67 °F  
Max Temperature 85 °F 79 °F 95 °F (1989)
Min Temperature 60 °F 56 °F 39 °F (1969)
Degree Days  
Heating Degree Days 0 1  
Month to date heating degree days 69 53  
Since 1 June heating degree days 69 53  
Since 1 July heating degree days 9142 8274  
Cooling Degree Days 8 4  
Month to date cooling degree days 47 50  
Year to date cooling degree days 72 73  
Since 1 June cooling degree days 47 50  
Growing Degree Days 22 (Base 50)    
Moisture  
Dew Point 67 °F    
Average Humidity 81    
Maximum Humidity 100    
Minimum Humidity 61    
Precipitation  
Precipitation 2.42 in 0.12 in 2.42 in (2013)
Month to date precipitation 4.12 2.62  
Year to date precipitation 13.46 9.60  
Sea Level Pressure  
Sea Level Pressure 29.78 in    
Wind  
Wind Speed 13 mph (SE)    
Max Wind Speed 35 mph    
Max Gust Speed 45 mph    
T = Trace of Precipitation, MM = Missing Value Source: NWS Daily Summary

Daily Weather History Graph

Daily Weather History Graph

Search for Another Location

Airport or City:

Trip Planner

Search our weather history database for the weather conditions in past years. The results will help you decide how hot, cold, wet, or windy it might be!

Date:

Astronomy

Jun. 20, 2013 Rise Set
Actual Time 5:38 AM CDT 9:20 PM CDT
Civil Twilight 5:00 AM CDT 9:59 PM CDT
Nautical Twilight 4:08 AM CDT 10:50 PM CDT
Astronomical Twilight 2:58 AM CDT 12:00 AM CDT
Moon 6:19 PM CDT (6/20) 3:12 AM CDT (6/20)
Length of Visible Light 16h 58m
Length of Day
15h 42m
Waxing Gibbous, 89% of the Moon is Illuminated
Jun 20
Waxing Gibbous
Jun 23
Full
Jun 29
Last Quarter
Jul 8
New
Jul 15
First Quarter

Hourly Weather History & Observations

Time (CDT) Temp. Heat Index Dew Point Humidity Pressure Visibility Wind Dir Wind Speed Gust Speed Precip Events Conditions
12:56 AM 70.0 °F - 61.0 °F 73% 29.77 in - South 19.6 mph 39.1 mph N/A   Unknown
1:56 AM 72.0 °F - 64.9 °F 78% 29.77 in - SSE 12.7 mph - 0.01 in   Unknown
2:56 AM 71.1 °F - 66.0 °F 84% 29.78 in - SE 9.2 mph - 0.02 in   Unknown
3:56 AM 69.1 °F - 66.0 °F 90% 29.80 in - NE 9.2 mph - 0.04 in   Unknown
4:56 AM 64.0 °F - 62.1 °F 93% 29.81 in - ENE 13.8 mph - 0.05 in   Unknown
5:56 AM 64.0 °F - 63.0 °F 96% 29.83 in - NE 8.1 mph - 0.12 in   Unknown
6:56 AM 63.0 °F - 62.1 °F 97% 29.91 in - WSW 27.6 mph 40.3 mph 0.07 in   Unknown
7:56 AM 60.1 °F - 59.0 °F 96% 29.89 in - NNE 5.8 mph - 0.44 in   Unknown
8:56 AM 60.1 °F - 60.1 °F 100% 29.86 in - SSE 10.4 mph - 0.22 in   Unknown
9:35 AM 62.6 °F - 60.8 °F 94% 29.85 in - South 21.9 mph - 0.10 in   Unknown
9:56 AM 64.0 °F - 62.1 °F 93% 29.78 in - South 21.9 mph 31.1 mph 0.10 in   Unknown
10:56 AM 69.1 °F - 64.9 °F 87% 29.79 in - South 16.1 mph - N/A   Unknown
11:56 AM 73.9 °F - 68.0 °F 82% 29.80 in - South 17.3 mph - N/A   Unknown
12:56 PM 77.0 °F - 69.1 °F 76% 29.81 in - South 13.8 mph 23.0 mph N/A   Unknown
1:56 PM 80.1 °F 83.6 °F 71.1 °F 74% 29.79 in - SE 11.5 mph 19.6 mph N/A   Unknown
2:56 PM 82.0 °F 86.3 °F 71.1 °F 69% 29.77 in - SE 11.5 mph - N/A   Unknown
3:56 PM 84.9 °F 88.8 °F 69.1 °F 59% 29.77 in - South 18.4 mph - N/A   Unknown
4:56 PM 82.9 °F 86.5 °F 69.1 °F 63% 29.76 in - SSE 10.4 mph - N/A   Unknown
5:56 PM 82.9 °F 87.5 °F 71.1 °F 67% 29.75 in - SE 6.9 mph - N/A   Unknown
6:56 PM 84.0 °F 89.0 °F 71.1 °F 65% 29.70 in - SSE 12.7 mph - N/A   Unknown
7:56 PM 81.0 °F 85.8 °F 73.0 °F 77% 29.72 in - SE 6.9 mph - N/A   Unknown
8:56 PM 79.0 °F - 73.0 °F 82% 29.73 in - ESE 3.5 mph - N/A   Unknown
9:56 PM 75.9 °F - 73.0 °F 91% 29.69 in - SE 5.8 mph - 0.01 in   Unknown
10:56 PM 73.9 °F - 70.0 °F 87% 29.68 in - NE 10.4 mph 21.9 mph 0.01 in   Unknown
11:56 PM 69.1 °F - 69.1 °F 100% 29.71 in - ENE 18.4 mph 27.6 mph 1.31 in   Unknown